Вернуться в каталог

JAWSAT

АктивенНаукаLEO
NORAD 26061·PAYLOAD·🇺🇸 United States

Запущен Jan 27, 2000 с Vandenberg Space Force Base

Loading…

Ближайшие Пролёты (ближайшие 24 часа)

TLE

СвежийSource: Space-Track

Эпоха: Sep 14, 2026, 01:23 UTC

1 26061U 00004A   26257.05763912  .00000311  00000-0  10578-3 0  9993
2 26061 100.2235 280.1830 0031364 337.2923  22.6873 14.45182477399763

Отслеживайте JAWSAT в реальном времени с AllMySat

Download on the App Store